Location: Axtheid
(49.6213°N, 11.8205°E)
Time: 15:51:36
(UTC+00:00)

Envisat - Pass Details

Date: 03 October 2022
Orbit: 763 x 765 km, 98.2° (Epoch: 30 November)

Event Time Altitude Azimuth Distance (km) Brightness Sun altitude
Rises 03:56:24 0° 12° (NNE) 3,247 6.6 -13.6°
Reaches altitude 10° 03:58:43 10° 11° (N) 2,316 5.8 -13.2°
Maximum altitude 04:03:49 75° 287° (WNW) 798 2.9 -12.4°
Drops below altitude 10° 04:08:52 10° 203° (SSW) 2,298 5.2 -11.6°
Sets 04:11:10 0° 202° (SSW) 3,219 5.9 -11.2°
